Buffalo, MN

10:07 AM CST on December 15, 2017 (GMT -0600)
Buffalo

Weather History for KCFE - March, 2014

Change the Weather History Date:

Tuesday, March 18, 2014

  Actual Average (KMIC) Record (KMIC)
Temperature  
Mean Temperature 30 °F -  
Max Temperature 32 °F 38 °F 79 °F (2012)
Min Temperature 27 °F 21 °F 0 °F (1993)
Degree Days  
Heating Degree Days 36    
Moisture  
Dew Point 25 °F    
Average Humidity 83    
Maximum Humidity 93    
Minimum Humidity 69    
Precipitation  
Precipitation 0.03 in - - ()
Sea Level Pressure  
Sea Level Pressure 29.73 in    
Wind  
Wind Speed 10 mph (NNE)    
Max Wind Speed 15 mph    
Max Gust Speed 20 mph    
Visibility 6 miles    
Events Snow    
Averages and records for this station are not official NWS values.
T = Trace of Precipitation, MM = Missing Value Source: NWS Daily Summary

Daily Weather History Graph

Daily Weather History Graph

Search for Another Location

Airport or City:

Trip Planner

Search our weather history database for the weather conditions in past years. The results will help you decide how hot, cold, wet, or windy it might be!

Date:

Astronomy

Mar. 18, 2014 Rise Set
Actual Time 7:22 AM CDT 7:25 PM CDT
Civil Twilight 6:52 AM CDT 7:54 PM CDT
Nautical Twilight 6:18 AM CDT 8:29 PM CDT
Astronomical Twilight 5:43 AM CDT 9:04 PM CDT
Moon 9:50 PM CDT (3/18) 8:05 AM CDT (3/18)
Length of Visible Light 13h 01m
Length of Day
12h 03m
Waning Gibbous, 96% of the Moon is Illuminated
Mar 18
Waning Gibbous
Mar 23
Last Quarter
Mar 30
New
Apr 7
First Quarter
Apr 15
Full

Hourly Weather History & Observations

Time (CDT) Temp. Windchill Dew Point Humidity Pressure Visibility Wind Dir Wind Speed Gust Speed Precip Events Conditions
12:15 AM 30.4 °F 23.6 °F 24.4 °F 79% 29.65 in 10.0 mi NE 6.9 mph - N/A   Clear
12:36 AM 30.0 °F 22.4 °F 23.9 °F 78% 29.64 in 10.0 mi NE 8.1 mph - N/A   Clear
12:55 AM 29.8 °F 20.9 °F 23.0 °F 76% 29.63 in 10.0 mi ENE 10.4 mph - N/A   Clear
1:15 AM 29.8 °F 20.9 °F 22.8 °F 75% 29.63 in 10.0 mi ENE 10.4 mph 18.4 mph N/A   Mostly Cloudy
1:36 AM 30.0 °F 21.7 °F 22.6 °F 74% 29.63 in 10.0 mi ENE 9.2 mph - N/A   Mostly Cloudy
1:55 AM 30.2 °F 22.6 °F 22.6 °F 73% 29.64 in 10.0 mi ENE 8.1 mph - N/A   Scattered Clouds
2:15 AM 30.2 °F 23.4 °F 22.1 °F 72% 29.64 in 10.0 mi ENE 6.9 mph - N/A   Clear
2:36 AM 30.2 °F 21.9 °F 22.1 °F 72% 29.64 in 10.0 mi NE 9.2 mph - N/A   Scattered Clouds
2:55 AM 30.2 °F 21.9 °F 22.1 °F 72% 29.64 in 10.0 mi NE 9.2 mph - N/A   Mostly Cloudy
3:15 AM 30.0 °F 21.1 °F 21.7 °F 71% 29.63 in 10.0 mi NE 10.4 mph - N/A   Overcast
3:35 AM 30.0 °F 21.7 °F 21.2 °F 70% 29.63 in 10.0 mi ENE 9.2 mph - N/A   Overcast
3:55 AM 30.0 °F 21.1 °F 21.2 °F 70% 29.63 in 10.0 mi NNE 10.4 mph - N/A   Overcast
4:16 AM 30.2 °F 22.6 °F 21.0 °F 69% 29.63 in 10.0 mi NE 8.1 mph - N/A   Overcast
4:35 AM 30.2 °F 22.6 °F 21.2 °F 69% 29.64 in 10.0 mi NE 8.1 mph - N/A   Overcast
4:55 AM 30.2 °F 21.9 °F 21.4 °F 70% 29.64 in 10.0 mi NE 9.2 mph - N/A   Overcast
5:16 AM 30.2 °F 21.9 °F 21.9 °F 71% 29.65 in 10.0 mi NE 9.2 mph - N/A   Overcast
5:35 AM 30.2 °F 21.9 °F 21.9 °F 71% 29.64 in 10.0 mi NE 9.2 mph - N/A   Overcast
5:55 AM 30.2 °F 23.4 °F 21.9 °F 71% 29.67 in 10.0 mi NE 6.9 mph - N/A   Overcast
6:16 AM 30.0 °F 21.7 °F 22.1 °F 72% 29.67 in 10.0 mi NNE 9.2 mph - N/A   Overcast
6:35 AM 29.8 °F 20.3 °F 22.1 °F 73% 29.68 in 10.0 mi NE 11.5 mph - N/A   Overcast
6:55 AM 29.3 °F 19.6 °F 22.6 °F 76% 29.69 in 5.0 mi NE 11.5 mph - N/A Snow Light Snow
7:15 AM 28.0 °F 16.5 °F 23.9 °F 84% 29.68 in 0.8 mi NE 15.0 mph 19.6 mph N/A Snow Snow
7:35 AM 27.3 °F 17.7 °F 24.8 °F 90% 29.68 in 1.5 mi NE 10.4 mph - N/A Snow Light Snow
7:55 AM 27.1 °F 16.4 °F 24.8 °F 91% 29.70 in 0.8 mi ENE 12.7 mph - N/A Snow Snow
8:15 AM 27.1 °F 16.9 °F 24.8 °F 91% 29.71 in 0.5 mi ENE 11.5 mph - N/A Snow Snow
8:35 AM 27.1 °F 17.5 °F 25.0 °F 92% 29.71 in 0.2 mi NE 10.4 mph - N/A Snow Snow
8:55 AM 27.1 °F 18.2 °F 25.0 °F 92% 29.71 in 0.8 mi NE 9.2 mph - N/A Snow Light Snow
9:15 AM 27.3 °F 18.4 °F 25.3 °F 92% 29.71 in 0.5 mi NE 9.2 mph - N/A Snow Light Snow
9:35 AM 27.9 °F 19.1 °F 25.5 °F 91% 29.72 in 2.5 mi NE 9.2 mph - N/A Snow Light Snow
9:55 AM 28.2 °F 19.5 °F 25.3 °F 89% 29.72 in 7.0 mi NE 9.2 mph - N/A   Overcast
10:15 AM 28.4 °F 19.7 °F 25.3 °F 88% 29.73 in 7.0 mi NNE 9.2 mph - N/A   Overcast
10:36 AM 28.4 °F 18.5 °F 25.3 °F 88% 29.72 in 7.0 mi NE 11.5 mph 16.1 mph N/A   Overcast
10:55 AM 28.4 °F 18.0 °F 25.2 °F 88% 29.72 in 7.0 mi NNE 12.7 mph 18.4 mph N/A   Overcast
11:15 AM 29.1 °F 18.9 °F 25.5 °F 86% 29.72 in 7.0 mi NNE 12.7 mph 17.3 mph N/A   Overcast
11:35 AM 30.0 °F 20.0 °F 25.7 °F 84% 29.72 in 7.0 mi NE 12.7 mph - N/A   Overcast
11:55 AM 30.7 °F 20.0 °F 25.9 °F 82% 29.73 in 10.0 mi NE 15.0 mph 18.4 mph N/A   Overcast
12:16 PM 31.3 °F 23.3 °F 25.9 °F 80% 29.74 in 10.0 mi NE 9.2 mph - 0.01 in   Overcast
12:35 PM 31.6 °F 23.1 °F 26.4 °F 81% 29.74 in 10.0 mi NNE 10.4 mph - 0.02 in   Overcast
12:55 PM 31.6 °F 22.6 °F 26.2 °F 80% 29.74 in 10.0 mi NNE 11.5 mph - 0.02 in   Scattered Clouds
1:16 PM 32.0 °F 23.0 °F 26.2 °F 79% 29.74 in 10.0 mi NNE 11.5 mph - N/A   Clear
1:35 PM 32.0 °F 22.5 °F 26.4 °F 80% 29.74 in 10.0 mi NNE 12.7 mph 18.4 mph N/A   Scattered Clouds
1:55 PM 32.0 °F 22.5 °F 26.2 °F 79% 29.74 in 10.0 mi NNE 12.7 mph - N/A   Scattered Clouds
2:15 PM 32.0 °F 22.5 °F 26.4 °F 80% 29.74 in 10.0 mi NNE 12.7 mph 18.4 mph N/A   Scattered Clouds
2:35 PM 32.0 °F 22.5 °F 26.6 °F 80% 29.73 in 10.0 mi NNE 12.7 mph 17.3 mph N/A   Mostly Cloudy
2:56 PM 32.0 °F 22.5 °F 26.6 °F 80% 29.73 in 10.0 mi NNE 12.7 mph 17.3 mph 0.01 in   Mostly Cloudy
3:15 PM 32.0 °F 24.2 °F 26.4 °F 80% 29.73 in 10.0 mi North 9.2 mph 16.1 mph N/A   Mostly Cloudy
3:35 PM 32.0 °F 23.6 °F 26.2 °F 79% 29.75 in 10.0 mi North 10.4 mph 16.1 mph N/A   Mostly Cloudy
3:56 PM 32.0 °F 23.6 °F 25.9 °F 78% 29.76 in 10.0 mi NNE 10.4 mph - N/A   Mostly Cloudy
4:15 PM 32.0 °F 23.6 °F 26.1 °F 79% 29.76 in 10.0 mi NNE 10.4 mph - N/A   Overcast
4:35 PM 32.0 °F 23.0 °F 26.4 °F 80% 29.76 in 3.0 mi North 11.5 mph - N/A Snow Light Snow
4:56 PM 30.9 °F 22.8 °F 27.3 °F 86% 29.76 in 1.0 mi North 9.2 mph - N/A Snow Light Snow
5:15 PM 30.6 °F 21.2 °F 27.5 °F 88% 29.76 in 1.2 mi North 11.5 mph 17.3 mph N/A Snow Light Snow
5:35 PM 30.2 °F 20.2 °F 27.5 °F 90% 29.76 in 1.0 mi North 12.7 mph 18.4 mph N/A Snow Light Snow
5:56 PM 30.2 °F 20.8 °F 27.7 °F 90% 29.76 in 1.0 mi North 11.5 mph 18.4 mph N/A Snow Light Snow
6:15 PM 30.2 °F 21.3 °F 27.9 °F 91% 29.77 in 1.0 mi NNE 10.4 mph 17.3 mph N/A Snow Light Snow
6:35 PM 30.2 °F 22.6 °F 28.0 °F 92% 29.79 in 1.0 mi NNE 8.1 mph - N/A Snow Light Snow
6:56 PM 30.0 °F 23.2 °F 27.9 °F 92% 29.80 in 0.8 mi NNE 6.9 mph - N/A Snow Light Snow
7:15 PM 29.8 °F 22.2 °F 27.9 °F 92% 29.81 in 0.8 mi North 8.1 mph - N/A Snow Light Snow
7:35 PM 29.7 °F 22.8 °F 27.9 °F 93% 29.81 in 1.2 mi North 6.9 mph - N/A Snow Light Snow
7:56 PM 29.1 °F 20.6 °F 27.1 °F 92% 29.81 in 2.0 mi North 9.2 mph - N/A Snow Light Snow
8:15 PM 28.9 °F 21.9 °F 26.6 °F 91% 29.82 in 2.0 mi North 6.9 mph - N/A Snow Light Snow
8:35 PM 28.4 °F 19.7 °F 26.4 °F 92% 29.83 in 2.0 mi North 9.2 mph - N/A Snow Light Snow
8:56 PM 28.2 °F 20.2 °F 26.1 °F 92% 29.83 in 2.0 mi North 8.1 mph - N/A Snow Light Snow
9:15 PM 28.2 °F 20.2 °F 26.1 °F 92% 29.83 in 2.0 mi North 8.1 mph - N/A Snow Light Snow
9:35 PM 28.2 °F 19.5 °F 26.1 °F 92% 29.83 in 1.8 mi North 9.2 mph - N/A Snow Light Snow
9:56 PM 28.2 °F 18.3 °F 26.1 °F 92% 29.83 in 2.0 mi North 11.5 mph - N/A Snow Light Snow
10:15 PM 28.0 °F 18.6 °F 25.7 °F 91% 29.83 in 2.5 mi North 10.4 mph - N/A Snow Light Snow
10:35 PM 27.9 °F 18.4 °F 25.7 °F 92% 29.83 in 3.0 mi NNW 10.4 mph - N/A   Overcast
10:56 PM 27.5 °F 18.6 °F 25.5 °F 92% 29.83 in 2.5 mi North 9.2 mph - N/A   Overcast
11:15 PM 27.5 °F 19.3 °F 25.5 °F 92% 29.84 in 2.5 mi North 8.1 mph - N/A   Overcast
11:35 PM 27.3 °F 19.1 °F 25.2 °F 92% 29.83 in 3.0 mi NNW 8.1 mph - N/A Snow Light Snow
11:56 PM 27.3 °F 17.7 °F 25.2 °F 92% 29.83 in 4.0 mi NNW 10.4 mph - N/A Snow Light Snow